TimeCST,TemperatureF,Dew PointF,Humidity,Sea Level PressureIn,VisibilityMPH,Wind Direction,Wind SpeedMPH,Gust SpeedMPH,PrecipitationIn,Events,Conditions,WindDirDegrees,DateUTC
12:00 AM,60.8,57.2,88,30.27,-9999.0,Calm,Calm,-,N/A,,Clear,0,2014-01-06 06:00:00
1:00 AM,59.0,57.2,94,30.27,6.2,North,11.5,-,N/A,,Mostly Cloudy,360,2014-01-06 07:00:00
2:00 AM,59.0,59.0,100,30.27,6.2,North,4.6,-,N/A,,Mostly Cloudy,360,2014-01-06 08:00:00
2:10 AM,-9999,-9999,N/A,-9999,-9999.0,North,-9999.0,-,N/A,,Unknown,0,2014-01-06 08:10:00
3:00 AM,60.8,57.2,88,30.27,5.0,NNE,9.2,-,N/A,,Overcast,20,2014-01-06 09:00:00
4:00 AM,59.0,55.4,88,30.27,6.2,NNE,6.9,-,N/A,,Partly Cloudy,30,2014-01-06 10:00:00
5:00 AM,57.2,55.4,94,30.27,6.2,NNE,9.2,-,N/A,,Partly Cloudy,30,2014-01-06 11:00:00
6:00 AM,57,56,93,29.98,2,NNE,9.2,,,,Mist,30,2014-01-06 12:00:00
6:00 AM,57.2,55.4,94,30.27,2.5,NNE,9.2,-,N/A,,Scattered Clouds,30,2014-01-06 12:00:00
6:10 AM,-9999,-9999,N/A,-9999,3.1,North,9.2,-,N/A,,Mostly Cloudy,360,2014-01-06 12:10:00
6:45 AM,-9999,-9999,N/A,-9999,6.2,NNE,13.8,-,N/A,,Scattered Clouds,30,2014-01-06 12:45:00
7:00 AM,57.2,55.4,94,30.30,6.2,NNE,13.8,-,N/A,,Scattered Clouds,20,2014-01-06 13:00:00
8:00 AM,60.8,57.2,88,30.33,-9999.0,NNE,13.8,-,N/A,,Clear,20,2014-01-06 14:00:00
9:00 AM,64.4,51.8,64,30.33,-9999.0,NNE,13.8,-,N/A,,Clear,30,2014-01-06 15:00:00
10:00 AM,69.8,42.8,38,30.33,-9999.0,NNE,18.4,-,N/A,,Clear,30,2014-01-06 16:00:00
11:00 AM,73.4,37.4,27,30.33,-9999.0,NNE,20.7,-,N/A,,Clear,30,2014-01-06 17:00:00
12:00 PM,75.2,37.4,25,30.30,-9999.0,NNE,23.0,-,N/A,,Clear,20,2014-01-06 18:00:00
1:00 PM,75.2,37.4,25,30.27,-9999.0,North,23.0,-,N/A,,Partly Cloudy,360,2014-01-06 19:00:00
2:00 PM,77.0,39.2,26,30.24,6.2,NNW,25.3,-,N/A,,Partly Cloudy,340,2014-01-06 20:00:00
3:00 PM,75.2,44.6,34,30.24,6.2,North,23.0,-,N/A,,Partly Cloudy,360,2014-01-06 21:00:00
4:00 PM,73.4,46.4,38,30.24,6.2,North,18.4,-,N/A,,Partly Cloudy,360,2014-01-06 22:00:00
5:00 PM,69.8,48.2,46,30.27,6.2,North,20.7,-,N/A,,Partly Cloudy,360,2014-01-06 23:00:00
6:00 PM,66.2,50.0,56,30.27,-9999.0,North,20.7,-,N/A,,Clear,360,2014-01-07 00:00:00
7:00 PM,64.4,50.0,59,30.30,-9999.0,North,20.7,-,N/A,,Clear,360,2014-01-07 01:00:00
8:00 PM,62.6,50.0,63,30.33,-9999.0,North,20.7,-,N/A,,Clear,360,2014-01-07 02:00:00
9:00 PM,62.6,50.0,63,30.36,3.7,North,16.1,-,N/A,,Clear,360,2014-01-07 03:00:00
10:00 PM,62.6,51.8,68,30.39,6.2,North,18.4,-,N/A,,Partly Cloudy,360,2014-01-07 04:00:00
11:00 PM,60.8,51.8,72,30.39,6.2,North,13.8,-,N/A,,Partly Cloudy,360,2014-01-07 05:00:00